Location: Doverdale
(52.2833°N, 2.2000°W)
Time: 03:36:20
(UTC+00:00)

ATLAS 5 CENTAUR R/B - Pass Details

Date: 29 October 2020
Orbit: 531 x 1127 km, 63.4° (Epoch: 22 November)

Event Time Altitude Azimuth Distance (km) Brightness Sun altitude
Rises 19:53:02 0° 305° (NW) 3,009 6.1 -29.1°
Reaches altitude 10° 19:55:31 10° 317° (NW) 2,183 5.0 -29.5°
Enters shadow 19:59:01 27° 1° (N) 1,455 3.5 -30.0°
